KC3FKS-2 Weather Reports


Display with metric or nautical units.
time (UTC)temp
F
wind
direction
speed
MPH
gust
MPH
rain 1hr
in
rain 24hr
in
rain mn
in
humidity
%
barometer
mb
20171121225340 53 243 6.0 6.0 0.00 0.00 0.00
20171121224841 53 222 7.0 10.0 0.00 0.00 0.00
20171121224338 54 239 7.0 6.0 0.00 0.00 0.00
20171121223838 54 195 8.0 8.0 0.00 0.00 0.00
20171121222836 54 218 9.0 7.0 0.00 0.00 0.00
20171121222333 54 201 8.0 9.0 0.00 0.00 0.00
20171121221833 54 224 7.0 10.0 0.00 0.00 0.00
20171121220834 54 233 7.0 6.0 0.00 0.00 0.00
20171121220331 54 255 6.0 5.0 0.00 0.00 0.00
20171121215831 54 235 7.0 10.0 0.00 0.00 0.00
20171121215331 54 233 7.0 10.0 0.00 0.00 0.00
20171121214831 54 217 8.0 6.0 0.00 0.00 0.00
20171121214328 54 222 5.0 7.0 0.00 0.00 0.00
20171121213828 54 239 6.0 5.0 0.00 0.00 0.00
20171121213328 55 211 8.0 8.0 0.00 0.00 0.00
20171121212828 54 236 8.0 5.0 0.00 0.00 0.00
20171121212326 55 195 8.0 5.0 0.00 0.00 0.00
20171121211826 56 208 6.0 7.0 0.00 0.00 0.00
20171121211326 56 231 6.0 8.0 0.00 0.00 0.00
20171121210826 57 259 6.0 7.0 0.00 0.00 0.00
20171121210323 58 250 7.0 4.0 0.00 0.00 0.00
20171121205323 58 242 6.0 6.0 0.00 0.00 0.00
20171121204823 57 250 5.0 5.0 0.00 0.00 0.00
20171121204320 56 181 6.0 5.0 0.00 0.00 0.00
20171121203820 56 238 5.0 6.0 0.00 0.00 0.00
20171121202318 56 207 6.0 7.0 0.00 0.00 0.00
20171121201818 56 276 8.0 9.0 0.00 0.00 0.00
20171121201318 56 215 8.0 8.0 0.00 0.00 0.00
20171121200818 56 243 6.0 7.0 0.00 0.00 0.00
20171121200315 56 208 6.0 5.0 0.00 0.00 0.00
20171121195315 56 215 5.0 6.0 0.00 0.00 0.00
20171121194815 56 221 6.0 7.0 0.00 0.00 0.00
20171121194313 56 208 8.0 4.0 0.00 0.00 0.00
20171121193813 56 257 8.0 13.0 0.00 0.00 0.00
20171121193313 56 211 7.0 7.0 0.00 0.00 0.00
20171121191811 56 236 8.0 8.0 0.00 0.00 0.00
20171121191311 57 228 7.0 7.0 0.00 0.00 0.00
20171121190308 56 211 7.0 5.0 0.00 0.00 0.00
20171121185808 57 246 8.0 6.0 0.00 0.00 0.00
20171121185308 57 240 5.0 5.0 0.00 0.00 0.00
20171121184808 56 273 5.0 7.0 0.00 0.00 0.00
20171121184306 56 200 7.0 6.0 0.00 0.00 0.00
20171121183806 56 217 6.0 7.0 0.00 0.00 0.00
20171121183305 56 225 8.0 6.0 0.00 0.00 0.00
20171121182302 56 225 9.0 7.0 0.00 0.00 0.00
20171121180803 56 219 8.0 10.0 0.00 0.00 0.00
20171121175800 57 224 7.0 5.0 0.00 0.00 0.00
20171121175300 56 248 8.0 8.0 0.00 0.00 0.00
20171121174800 56 242 10.0 10.0 0.00 0.00 0.00
20171121174258 56 217 8.0 6.0 0.00 0.00 0.00
20171121173758 56 212 10.0 12.0 0.00 0.00 0.00
20171121172758 56 242 10.0 8.0 0.00 0.00 0.00
20171121171755 57 214 9.0 11.0 0.00 0.00 0.00
20171121171256 57 211 10.0 8.0 0.00 0.00 0.00
20171121170756 56 219 9.0 8.0 0.00 0.00 0.00
20171121170253 57 233 8.0 6.0 0.00 0.00 0.00
20171121165753 57 249 8.0 10.0 0.00 0.00 0.00
20171121165253 57 217 7.0 11.0 0.00 0.00 0.00
20171121164753 57 249 10.0 9.0 0.00 0.00 0.00
20171121163751 58 193 9.0 15.0 0.00 0.00 0.00
20171121162751 58 214 9.0 16.0 0.00 0.00 0.00
20171121161748 57 207 9.0 8.0 0.00 0.00 0.00
20171121161248 57 228 7.0 7.0 0.00 0.00 0.00
20171121160749 58 226 11.0 4.0 0.00 0.00 0.00
20171121160246 58 260 9.0 7.0 0.00 0.00 0.00
20171121155246 58 229 7.0 9.0 0.00 0.00 0.00
20171121154746 56 271 6.0 4.0 0.00 0.00 0.00
20171121154243 56 264 10.0 10.0 0.00 0.00 0.00
20171121153743 56 283 8.0 9.0 0.00 0.00 0.00
20171121153243 56 236 9.0 10.0 0.00 0.00 0.00
20171121152743 57 222 4.0 8.0 0.00 0.00 0.00
20171121151239 56 308 7.0 5.0 0.00 0.00 0.00
20171121144736 54 269 5.0 5.0 0.00 0.00 0.00
20171121144233 53 267 9.0 8.0 0.00 0.00 0.00
20171121143734 54 169 2.0 0.0 0.00 0.00 0.00
20171121142734 53 236 6.0 4.0 0.00 0.00 0.00
20171121142231 52 267 5.0 6.0 0.00 0.00 0.00
20171121140228 50 256 8.0 4.0 0.00 0.00 0.00
20171121135728 50 242 3.0 7.0 0.00 0.00 0.00
20171121135228 49 243 3.0 4.0 0.00 0.00 0.00
20171121134728 49 242 4.0 5.0 0.00 0.00 0.00
20171121134226 49 176 4.0 3.0 0.00 0.00 0.00
20171121133725 48 208 1.0 4.0 0.00 0.00 0.00
20171121132726 47 233 5.0 5.0 0.00 0.00 0.00
20171121132223 46 218 4.0 2.0 0.00 0.00 0.00
20171121130722 43 259 3.0 0.0 0.00 0.00 0.00
20171121124718 40 221 2.0 1.0 0.00 0.00 0.00
20171121123214 39 211 2.0 1.0 0.00 0.00 0.00
20171121121212 38 235 3.0 3.0 0.00 0.00 0.00
20171121120711 38 228 3.0 2.0 0.00 0.00 0.00
20171121120207 38 197 2.0 4.0 0.00 0.00 0.00
20171121115707 38 221 4.0 4.0 0.00 0.00 0.00
20171121112703 38 204 2.0 5.0 0.00 0.00 0.00
20171121112200 37 222 2.0 2.0 0.00 0.00 0.00
20171121110659 38 222 0.0 0.0 0.00 0.00 0.00
20171121110156 38 197 2.0 3.0 0.00 0.00 0.00
20171121105656 37 218 3.0 3.0 0.00 0.00 0.00
20171121104656 38 224 2.0 3.0 0.00 0.00 0.00
20171121104153 37 217 3.0 3.0 0.00 0.00 0.00
20171121103652 38 215 2.0 2.0 0.00 0.00 0.00
20171121103152 37 210 0.0 0.0 0.00 0.00 0.00
20171121102146 37 208 2.0 1.0 0.00 0.00 0.00
20171121101647 37 222 3.0 3.0 0.00 0.00 0.00
20171121101146 37 203 3.0 3.0 0.00 0.00 0.00
20171121095643 37 214 2.0 3.0 0.00 0.00 0.00
20171121094139 37 215 2.0 2.0 0.00 0.00 0.00
20171121093139 37 228 0.0 0.0 0.00 0.00 0.00
20171121092639 37 228 0.0 0.0 0.00 0.00 0.00
20171121092137 37 228 0.0 0.0 0.00 0.00 0.00
20171121091134 37 228 0.0 0.0 0.00 0.00 0.00
20171121090635 38 228 0.0 0.0 0.00 0.00 0.00
20171121090132 38 228 0.0 0.0 0.00 0.00 0.00
20171121085632 38 228 0.0 0.0 0.00 0.00 0.00
20171121085132 37 228 0.0 0.0 0.00 0.00 0.00
20171121083625 38 225 3.0 2.0 0.00 0.00 0.00
20171121083126 38 233 2.0 2.0 0.00 0.00 0.00
20171121082123 38 210 2.0 3.0 0.00 0.00 0.00
20171121081622 38 228 3.0 2.0 0.00 0.00 0.00
20171121081123 38 232 3.0 3.0 0.00 0.00 0.00
20171121080624 38 218 3.0 3.0 0.00 0.00 0.00
20171121075618 38 236 3.0 3.0 0.00 0.00 0.00
20171121075119 38 233 3.0 2.0 0.00 0.00 0.00
20171121074617 38 195 1.0 3.0 0.00 0.00 0.00
20171121073114 38 224 1.0 2.0 0.00 0.00 0.00
20171121072614 38 228 0.0 0.0 0.00 0.00 0.00
20171121071109 37 211 3.0 2.0 0.00 0.00 0.00
20171121065607 38 193 3.0 3.0 0.00 0.00 0.00
20171121065107 37 200 2.0 3.0 0.00 0.00 0.00
20171121064606 37 256 1.0 0.0 0.00 0.00 0.00
20171121064102 37 205 1.0 1.0 0.00 0.00 0.00
20171121061056 37 218 0.0 0.0 0.00 0.00 0.00
20171121055554 37 217 1.0 2.0 0.00 0.00 0.00
20171121054554 38 205 0.0 0.0 0.00 0.00 0.00
20171121053051 38 228 2.0 2.0 0.00 0.00 0.00
20171121052551 38 217 3.0 3.0 0.00 0.00 0.00
20171121052048 38 217 3.0 3.0 0.00 0.00 0.00
20171121050546 38 219 2.0 2.0 0.00 0.00 0.00
20171121045543 37 218 2.0 4.0 0.00 0.00 0.00
20171121043040 38 188 1.0 2.0 0.00 0.01 0.00
20171121042540 38 167 0.0 0.0 0.00 0.01 0.00
20171121042037 38 248 0.0 0.0 0.00 0.01 0.00
20171121041535 38 203 1.0 1.0 0.00 0.01 0.00
20171121041035 38 212 0.0 3.0 0.00 0.01 0.00
20171121040535 38 205 3.0 3.0 0.00 0.01 0.00
20171121040032 38 217 3.0 3.0 0.00 0.01 0.00
20171121035032 37 201 3.0 3.0 0.00 0.01 0.00
20171121034532 37 210 4.0 4.0 0.00 0.01 0.00
20171121034030 37 201 3.0 2.0 0.00 0.01 0.00
20171121033529 37 205 3.0 3.0 0.00 0.01 0.00
20171121033030 37 211 4.0 3.0 0.00 0.01 0.00
20171121032529 37 190 2.0 4.0 0.00 0.01 0.00
20171121032027 37 210 0.0 0.0 0.00 0.01 0.00
20171121031527 37 210 1.0 0.0 0.00 0.01 0.00
20171121031026 37 195 2.0 2.0 0.00 0.01 0.00
20171121030527 37 222 3.0 3.0 0.00 0.01 0.00
20171121025523 37 211 4.0 4.0 0.00 0.01 0.00
20171121025024 37 205 2.0 3.0 0.00 0.01 0.00
20171121023521 37 205 3.0 5.0 0.00 0.01 0.00
20171121023021 37 214 2.0 2.0 0.00 0.01 0.00
20171121021518 38 203 0.0 0.0 0.00 0.01 0.00
20171121021018 37 203 0.0 0.0 0.00 0.01 0.00
20171121020518 38 203 0.0 0.0 0.00 0.01 0.00
20171121015514 38 231 0.0 2.0 0.00 0.01 0.00
20171121014515 38 231 0.0 0.0 0.00 0.01 0.00
20171121014012 38 231 0.0 0.0 0.00 0.01 0.00
20171121013512 38 231 0.0 0.0 0.00 0.01 0.00
20171121012513 37 233 2.0 3.0 0.00 0.01 0.00
20171121012009 38 215 0.0 6.0 0.00 0.01 0.00
20171121011509 39 221 0.0 0.0 0.00 0.01 0.00
20171121011009 38 212 0.0 2.0 0.00 0.01 0.00
20171121010509 39 238 2.0 3.0 0.00 0.01 0.00
20171121010005 39 212 3.0 3.0 0.00 0.01 0.00
20171121005505 39 217 0.0 3.0 0.00 0.01 0.00
20171121004505 40 210 1.0 1.0 0.00 0.01 0.00
20171121004001 40 249 0.0 0.0 0.00 0.01 0.00
20171121003501 40 231 2.0 0.0 0.00 0.01 0.00
20171121003002 39 236 6.0 3.0 0.00 0.01 0.00
20171121002502 39 239 4.0 2.0 0.00 0.01 0.00
20171121000959 41 248 3.0 4.0 0.00 0.01 0.00
20171121000459 41 240 2.0 2.0 0.00 0.01 0.00
20171120235956 41 228 2.0 4.0 0.00 0.01 0.00
20171120235456 40 217 3.0 4.0 0.00 0.01 0.00
20171120234956 40 231 1.0 0.0 0.00 0.01 0.00
20171120233953 40 184 0.0 0.0 0.00 0.01 0.00
20171120233453 41 203 0.0 0.0 0.00 0.01 0.00
20171120232953 41 229 3.0 1.0 0.00 0.01 0.00
20171120232453 41 250 2.0 2.0 0.00 0.01 0.00
20171120231950 42 233 3.0 2.0 0.00 0.01 0.00
20171120231451 42 252 0.0 0.0 0.00 0.01 0.00
20171120230951 42 260 3.0 5.0 0.00 0.01 0.00